Regional Weather Roundup
Issued by NWS Sioux Falls, SD

Home | Current Version | Previous Version | Text Only | Print | Product List | Glossary On
Versions: 1 2 3 4 5 6 7 8 9 10 11 12 13 14 15 16 17 18 19 20 21 22 23 24 25 26 27 28 29 30 31 32 33 34 35 36 37 38 39 40 41 42 43 44 45 46 47 48 49 50
000
ASUS43 KFSD 251502
RWRFSD

WEATHER ROUNDUP FOR SE SOUTH DAKOTA/SW MINNESOTA/NW IOWA
NATIONAL WEATHER SERVICE SIOUX FALLS SD
900 AM CST SAT FEB 25 2017

NOTE: "FAIR" INDICATES FEW OR NO CLOUDS BELOW 12,000 FEET WITH NO
SIGNIFICANT WEATHER AND OR OBSTRUCTIONS TO VISIBILITY.


SDZ038>040-050-052>070-251600-
SOUTHEAST SOUTH DAKOTA

CITY           SKY/WX    TMP DP  RH WIND       PRES   REMARKS
BROOKINGS      CLOUDY    22  18  85 W8        29.99S WCI  12
CHAMBERLAIN    CLOUDY    24  18  76 S10       29.99F WCI  14
HURON          CLOUDY    24  18  77 SW9       30.00F WCI  14
MADISON        CLOUDY    19  19 100 W9        30.00S WCI   9
MITCHELL       CLOUDY    24  17  74 SW9       30.04F WCI  14
SIOUX FALLS    PTSUNNY   18  15  88 W3        30.03S
WINNER         CLOUDY    18  11  74 SW10      29.98F WCI   6
YANKTON        CLOUDY    19  12  73 S3        30.07F
$$

MNZ071-072-080-081-089-090-097-098-251600-
SOUTHWEST MINNESOTA

CITY           SKY/WX    TMP DP  RH WIND       PRES   REMARKS
FAIRMONT       SUNNY     19  11  70 NW16      30.01S WCI   4
JACKSON        SUNNY     18   9  68 NW12      30.00F WCI   5
LUVERNE        SUNNY     18  12  79 W8        30.03F WCI   7
MARSHALL       SUNNY     22  13  68 W9        30.01S WCI  12
MONTEVIDEO     SUNNY     23  16  74 NW5       30.02S WCI  17
PIPESTONE      SUNNY     19  12  73 W8        29.99S WCI   9
REDWOOD FALLS  SUNNY     21  10  62 NW8       30.01S WCI  11
TRACY          SUNNY     22  12  66 NW6       30.01S WCI  14
WINDOM         SUNNY     19  10  68 W9        30.00F WCI   9
WORTHINGTON    SUNNY     18  12  77 SW7       30.01S WCI   9
$$

IAZ001>003-012>014-020>022-031-032-NEZ013-014-SDZ071-251600-
NORTHWEST IOWA

CITY           SKY/WX    TMP DP  RH WIND       PRES   REMARKS
CHEROKEE       SUNNY     15  11  87 CALM      30.06F
DENISON        SUNNY     18  12  79 VRB3      30.07S
ESTHERVILLE    SUNNY     14   9  80 NW15      30.01S WCI  -1
LE MARS        PTSUNNY   16  12  86 SW3       30.09S
SHELDON        SUNNY     16  16 100 W9        30.03S WCI   4
SIOUX CITY     CLOUDY    17  11  77 W8        30.11R WCI   7
SPENCER        SUNNY     15  10  80 W9        30.04R WCI   3
STORM LAKE     SUNNY     12   9  85 W10       30.05R WCI  -1
$$

ABBREVIATIONS USED IN REMARKS
   TC - TEMPERATURE IN CELSIUS
  WCI - WIND CHILL INDEX
   HX - HEAT INDEX
  VSB - VISIBILITY




USA.gov is the U.S. government's official web portal to all federal, state and local government web resources and services.